This demonstration page uses our WeatherBlox Daily Observations layout. Learn more.

Hourly Observations for March 22, 2015

Temp ( °F °C ) Dew Point ( °F °C ) Humidity (%) Winds ( mph kmh ) Pressure ( in mb ) Visibility ( mi km ) Precip ( " mm )
12:15 am 00:15 Clear 51 10.5 27 -2.6 40 40 S 14 22 30 1016 10 16.0934 0 0
12:35 am 00:35 Clear 51 10.7 28 -2.5 40 40 S 13 20 29.97 1015 10 16.0934 0 0
12:55 am 00:55 Clear 51 10.5 28 -2.5 40 40 S 12 19 29.97 1015 10 16.0934 0 0
1:15 am 01:15 Clear 50 9.8 28 -2.4 43 43 S 13 20 29.97 1015 10 16.0934 0 0
1:35 am 01:35 Clear 48 9.1 28 -2.2 45 45 S 14 22 29.97 1015 10 16.0934 0 0
1:55 am 01:55 Clear 49 9.3 28 -2 45 45 SSW 12 19 29.97 1015 10 16.0934 0 0
2:15 am 02:15 Clear 47 8.3 28 -2.1 48 48 S 8 13 30 1016 10 16.0934 0 0
2:35 am 02:35 Clear 46 7.9 28 -2 50 50 SSW 6 9 30 1016 10 16.0934 0 0
2:55 am 02:55 Clear 42 5.8 28 -2.4 56 56 SSW 7 11 30 1016 10 16.0934 0 0
3:15 am 03:15 Clear 45 7.1 28 -2 53 53 SSW 10 17 30 1016 10 16.0934 0 0
3:35 am 03:35 Clear 45 7.1 29 -1.7 54 54 SSW 9 15 30 1016 10 16.0934 0 0
3:55 am 03:55 Clear 45 7 30 -1.3 56 56 SSW 12 19 30 1016 10 16.0934 0 0
4:15 am 04:15 Clear 44 6.6 30 -1.1 58 58 SW 7 11 30 1016 10 16.0934 0 0
4:35 am 04:35 Clear 44 6.5 30 -0.9 60 60 SW 9 15 30 1016 10 16.0934 0 0
4:55 am 04:55 Clear 43 6.3 31 -0.8 61 61 SW 6 9 30 1016 10 16.0934 0 0
5:15 am 05:15 Clear 44 6.5 32 -0.2 63 63 SW 7 11 30 1016 10 16.0934 0 0
5:35 am 05:35 Clear 44 6.7 33 0.5 65 65 SW 8 13 29.97 1015 10 16.0934 0 0
5:55 am 05:55 Clear 46 7.5 33 0.7 62 62 SW 7 11 29.97 1015 10 16.0934 0 0
6:15 am 06:15 Clear 43 6 32 0.1 66 66 SSW 7 11 29.97 1015 10 16.0934 0 0
6:35 am 06:35 Clear 40 4.6 31 -0.5 70 70 SSW 6 9 30 1016 10 16.0934 0 0
6:55 am 06:55 Clear 42 5.5 32 0.2 69 69 SW 6 9 29.97 1015 10 16.0934 0 0
7:15 am 07:15 Clear 42 5.8 33 0.8 71 71 SW 7 11 29.97 1015 10 16.0934 0 0
7:35 am 07:35 Clear 40 4.5 33 0.5 76 76 SSW 7 11 30 1016 10 16.0934 0 0
7:55 am 07:55 Sunny 37 2.8 31 -0.4 80 80 SSW 5 7 30 1016 10 16.0934 0 0
8:15 am 08:15 Sunny 42 5.3 35 1.4 76 76 SSW 6 9 30 1016 10 16.0934 0 0
8:35 am 08:35 Sunny 44 6.7 36 2.4 74 74 SSW 5 7 29.97 1015 10 16.0934 0 0
8:55 am 08:55 Sunny 47 8.5 38 3.4 71 71 SW 5 7 29.94 1014 10 16.0934 0 0
9:15 am 09:15 Sunny 51 10.4 40 4.3 66 66 SW 9 15 29.94 1014 10 16.0934 0 0
9:35 am 09:35 Sunny 52 11.3 40 4.5 63 63 SW 8 13 29.94 1014 10 16.0934 0 0
9:55 am 09:55 Sunny 54 12.2 40 4.5 60 60 SW 9 15 29.91 1013 10 16.0934 0 0
10:15 am 10:15 Sunny 56 13.2 40 4.4 55 55 SW 10 17 29.91 1013 10 16.0934 0 0
10:35 am 10:35 Sunny 58 14.7 40 4.6 51 51 SW 7 11 29.91 1013 10 16.0934 0 0
10:55 am 10:55 Sunny 61 16.2 40 4.7 47 47 SSW 10 17 29.88 1012 10 16.0934 0 0
11:15 am 11:15 Sunny 64 17.8 41 4.8 42 42 SW 8 13 29.88 1012 10 16.0934 0 0
11:35 am 11:35 Sunny 66 18.7 40 4.5 39 39 SW 10 17 29.85 1011 10 16.0934 0 0
11:55 am 11:55 Sunny 67 19.6 40 4.5 37 37 SSW 10 17 29.85 1011 10 16.0934 0 0
12:15 pm 12:15 Sunny 68 20.1 40 4.2 35 35 SW 13 20 29.83 1010 10 16.0934 0 0
12:35 pm 12:35 Sunny 70 20.9 40 4.4 34 34 SSW 9 15 29.83 1010 10 16.0934 0 0
12:55 pm 12:55 Sunny 70 21.1 39 4.1 33 33 SSW 9 15 29.83 1010 10 16.0934 0 0
1:15 pm 13:15 Sunny 71 21.9 39 3.9 31 31 SSW 12 19 29.83 1010 10 16.0934 0 0
1:35 pm 13:35 Sunny 71 21.5 39 4.1 32 32 S 10 17 29.83 1010 10 16.0934 0 0
1:55 pm 13:55 Sunny 73 22.9 39 3.9 29 29 SW 9 15 29.83 1010 10 16.0934 0 0
2:15 pm 14:15 Sunny 72 22.4 38 3.4 29 29 SSW 9 15 29.83 1010 10 16.0934 0 0
2:35 pm 14:35 Sunny 73 23 39 3.9 29 29 Calm 29.8 1009 10 16.0934 0 0
2:55 pm 14:55 Sunny 74 23.5 38 3.6 27 27 W 10 17 29.8 1009 10 16.0934 0 0
3:15 pm 15:15 Sunny 75 23.7 37 2.9 26 26 W 6 9 29.8 1009 10 16.0934 0 0
3:35 pm 15:35 Sunny 71 21.5 33 0.4 25 25 N 20 31 29.83 1010 10 16.0934 0 0
3:55 pm 15:55 Sunny 70 21.1 33 0.3 25 25 NNW 16 26 29.83 1010 10 16.0934 0 0
4:15 pm 16:15 Sunny 68 19.9 31 -0.3 26 26 N 16 26 29.83 1010 10 16.0934 0 0
4:35 pm 16:35 Sunny 67 19.6 31 -0.5 26 26 N 15 24 29.85 1011 10 16.0934 0 0
4:55 pm 16:55 Sunny 67 19.6 29 -1.4 24 24 N 16 26 29.85 1011 10 16.0934 0 0
5:15 pm 17:15 Sunny 65 18.1 27 -2.7 24 24 NNW 18 30 29.88 1012 10 16.0934 0 0
5:35 pm 17:35 Sunny 64 17.6 27 -2.8 25 25 N 20 31 29.91 1013 10 16.0934 0 0
5:55 pm 17:55 Sunny 63 17.1 26 -3.1 25 25 N 18 30 29.91 1013 10 16.0934 0 0
6:15 pm 18:15 Sunny 62 16.4 26 -3.1 26 26 N 22 35 29.91 1013 10 16.0934 0 0
6:35 pm 18:35 Sunny 59 15.2 26 -3.4 28 28 N 20 31 29.97 1015 10 16.0934 0 0
6:55 pm 18:55 Sunny 58 14.3 26 -3.5 29 29 NNW 16 26 29.97 1015 10 16.0934 0 0
7:15 pm 19:15 Sunny 56 13.6 25 -3.9 30 30 N 17 28 29.97 1015 10 16.0934 0 0
7:35 pm 19:35 Sunny 54 12.4 24 -4.3 31 31 N 15 24 30.03 1017 10 16.0934 0 0
7:55 pm 19:55 Clear 52 11.2 24 -4.5 33 33 N 14 22 30.03 1017 10 16.0934 0 0
8:15 pm 20:15 Clear 50 9.9 23 -4.9 35 35 N 9 15 30.03 1017 10 16.0934 0 0
8:35 pm 20:35 Clear 47 8.3 23 -5.1 39 39 N 10 17 30.06 1018 10 16.0934 0 0
8:55 pm 20:55 Clear 46 8 22 -5.3 39 39 N 12 19 30.09 1019 10 16.0934 0 0
9:15 pm 21:15 Clear 45 7.2 23 -5.2 41 41 N 10 17 30.09 1019 10 16.0934 0 0
9:35 pm 21:35 Clear 42 5.7 22 -5.6 44 44 N 9 15 30.15 1021 10 16.0934 0 0
9:55 pm 21:55 Clear 41 5 22 -5.4 47 47 N 12 19 30.15 1021 10 16.0934 0 0
10:15 pm 22:15 Clear 40 4.5 22 -5.6 48 48 N 8 13 30.15 1021 10 16.0934 0 0
10:35 pm 22:35 Clear 41 4.8 22 -5.7 47 47 N 7 11 30.18 1022 10 16.0934 0 0
10:55 pm 22:55 Clear 39 4 22 -5.8 49 49 N 10 17 30.18 1022 10 16.0934 0 0
11:15 pm 23:15 Clear 38 3.5 20 -6.5 48 48 N 10 17 30.15 1021 10 16.0934 0 0
11:35 pm 23:35 Clear 37 2.7 20 -6.4 52 52 N 10 17 30.21 1023 10 16.0934 0 0
11:55 pm 23:55 Clear 38 3.1 21 -6.3 50 50 N 8 13 30.21 1023 10 16.0934 0 0

Powered by AerisWeather